Location: Malvern Link
(52.1333°N, 2.3000°W)
Time: 14:16:42
(UTC+00:00)

DIWATA 2B (PO-101) - Pass Details

Date: 02 July 2022
Orbit: 583 x 599 km, 98.0° (Epoch: 19 August)

Event Time Altitude Azimuth Distance (km) Brightness Sun altitude
Rises 00:11:01 0° 111° (ESE) 2,844 ? -14.8°
Reaches altitude 10° 00:14:06 10° 86° (E) 1,947 ? -14.8°
Maximum altitude 00:16:16 14° 55° (NE) 1,707 ? -14.8°
Drops below altitude 10° 00:18:25 10° 24° (NNE) 1,954 ? -14.8°
Sets 00:21:31 0° 359° (N) 2,861 ? -14.8°
